Theta_e
339 339 340 338 336 337 337 337 336 336 335 336 336 337 334 334 333 332 332 332 332 332 333 334 335 337 339 339 338 338 336 330 322 322 323 325 324 320 319 321 323 325 326
339 339 339 337 337 336 336 336 335 335 335 336 336 335 334 332 331 331 330 329 329 329 330 333 333 334 333 336 336 333 330 329 325 319 321 320 320 320 319 318 319 321 322
339 339 339 337 337 335 335 335 335 334 334 335 334 334 332 331 330 328 327 327 327 326 328 330 330 330 329 329 329 328 328 328 326 322 317 319 319 320 318 318 317 319 321
338 338 337 336 337 335 335 335 335 334 334 333 333 334 332 331 329 325 325 325 325 325 327 328 328 328 328 326 327 328 327 325 324 321 318 318 318 319 319 317 314 316 315
337 337 337 336 337 336 335 335 335 334 333 332 331 330 332 331 325 323 324 323 324 323 325 329 330 329 326 325 326 326 325 323 322 320 318 317 316 316 316 316 315 315 314
337 336 338 337 337 336 335 335 335 333 331 331 329 328 328 331 322 321 322 322 322 322 322 323 325 326 326 324 323 324 326 323 321 320 318 318 317 318 317 316 314 314 313
336 337 337 338 336 336 336 335 334 332 331 330 327 325 325 327 320 320 322 322 322 321 320 321 323 323 324 324 323 323 323 322 324 325 321 320 319 320 318 315 317 318 319
334 335 337 337 337 336 335 334 335 335 333 330 326 323 323 324 318 317 322 324 323 323 320 318 321 321 322 322 322 321 320 322 324 323 324 323 324 323 323 322 321 321 320
333 333 335 337 336 335 335 335 335 335 334 329 328 324 321 321 314 314 320 323 322 323 318 315 318 318 312 313 319 314 313 313 313 314 315 314 315 316 320 322 319 320 318
333 333 335 335 334 332 331 330 331 332 331 332 326 324 321 322 312 310 317 321 320 318 317 315 313 314 308 307 313 310 310 309 310 312 312 311 313 314 314 319 320 319 316
333 332 332 332 331 332 330 329 328 329 331 331 328 326 325 322 321 309 309 320 319 316 316 315 314 309 305 301 303 308 308 308 309 311 311 311 312 311 310 310 313 315 313
329 328 328 327 328 330 330 330 328 327 329 329 330 327 326 324 314 310 308 310 316 317 316 316 314 305 302 301 304 305 303 308 310 310 311 311 311 311 311 311 311 312 311
325 327 328 329 328 327 329 330 328 326 325 327 326 326 327 326 324 310 308 308 311 318 320 315 308 301 300 303 304 304 305 312 312 311 311 312 313 314 313 313 312 312 312
326 328 329 328 327 326 324 324 324 324 326 327 329 328 328 329 326 322 315 315 312 316 317 316 310 306 304 307 306 306 312 311 311 312 312 314 312 312 312 311 309 309 310
329 328 327 326 326 324 321 321 320 321 319 322 321 323 327 328 328 318 316 317 318 318 316 310 306 305 304 305 307 307 307 308 307 308 308 308 309 309 310 306 306 305 305
324 324 323 323 323 321 318 319 309 307 302 299 297 302 316 310 304 302 302 304 306 306 312 309 309 306 304 303 304 306 306 308 307 307 307 307 307 307 307 304 305 305 305
322 322 321 319 322 320 319 318 318 315 300 298 296 296 295 298 297 298 297 300 301 303 315 312 313 309 308 305 304 306 306 307 309 307 307 307 307 307 304 304 305 305 304
321 311 319 320 320 320 320 320 319 318 317 319 302 299 298 296 296 296 295 300 304 302 312 314 312 312 308 305 304 306 308 308 308 307 306 306 306 305 303 303 304 305 305
321 321 320 320 319 317 319 319 319 319 318 319 320 306 300 294 294 294 295 311 311 311 310 311 314 311 308 306 308 308 308 309 308 307 308 307 306 306 305 305 305 302 303
323 317 317 321 320 320 320 319 319 319 319 319 319 319 315 305 311 310 305 308 314 317 315 313 314 312 311 309 307 310 308 309 310 308 309 308 308 307 306 306 305 305 305
319 321 318 322 321 322 321 320 320 319 319 319 320 319 306 316 317 314 312 310 313 315 316 316 316 315 314 312 310 309 308 308 309 310 311 310 308 307 307 306 306 306 306
313 315 318 319 320 321 321 321 321 320 321 320 321 321 299 311 316 316 316 316 316 315 315 314 313 313 315 314 313 312 311 310 311 309 311 309 307 307 308 306 306 305 305
311 312 313 315 317 315 319 320 320 320 319 319 315 313 314 313 313 314 314 316 315 314 314 314 313 313 314 315 315 315 314 314 315 311 309 307 306 306 306 305 305 305 303
311 311 311 313 316 316 318 319 318 309 312 312 312 313 314 316 315 315 315 314 314 313 314 313 312 311 312 313 314 315 314 315 316 313 310 307 306 304 306 305 305 305 304
311 313 314 312 312 315 316 314 313 312 311 311 311 312 311 311 311 311 312 312 311 311 312 310 307 309 312 313 313 313 305 290 303 303 309 309 308 308 308 306 307 304 302
312 313 312 311 311 311 311 309 310 309 308 310 311 311 312 312 312 311 313 314 313 312 312 313 311 308 302 300 297 290 286 286 295 292 307 306 303 302 301 300 299 298 298
Wind_Speed
5 5 5 5 4 4 4 4 3 2 2 2 2 3 2 3 3 3 3 3 3 3 3 3 3 1 2 4 5 4 3 3 5 3 2 3 4 6 6 5 6 6 7
5 5 4 5 5 3 3 3 4 4 2 2 1 4 3 3 3 3 2 2 3 3 3 2 4 2 2 3 5 4 4 3 4 8 3 2 3 4 5 5 5 5 6
6 5 5 5 5 5 4 3 3 2 2 3 3 4 4 3 4 3 3 3 3 4 3 3 3 3 3 3 4 5 3 3 6 6 4 2 2 3 4 5 3 6 6
6 6 6 6 5 5 5 5 4 3 4 3 2 3 3 3 3 4 3 4 4 4 3 3 4 3 3 5 5 6 6 6 7 7 5 3 2 2 2 4 3 2 3
6 6 6 4 4 4 4 4 4 4 5 5 4 3 3 3 2 4 4 4 5 6 4 4 5 5 6 4 5 5 6 5 6 6 5 3 3 2 3 3 2 2 1
6 6 6 6 5 5 3 2 3 4 3 1 5 5 5 3 6 6 6 4 4 5 4 5 6 8 7 8 8 5 4 6 7 5 3 6 5 4 3 4 4 4 3
6 5 5 6 6 5 5 5 6 6 4 4 3 3 5 4 7 8 7 4 4 4 4 3 4 4 7 7 8 7 6 4 4 6 7 4 5 6 5 4 5 3 3
5 5 5 5 6 6 7 7 5 5 7 5 6 4 4 4 7 9 9 5 3 3 2 3 3 4 4 7 7 7 6 4 3 2 6 6 4 8 8 5 6 4 3
6 5 5 5 5 7 7 6 5 4 4 4 3 6 4 4 4 8 9 5 4 4 3 2 3 4 4 5 6 7 4 3 5 7 7 6 6 7 6 6 6 6 3
5 5 4 4 5 5 6 5 3 3 2 3 4 6 7 3 4 6 7 5 5 4 2 3 4 4 6 7 6 6 6 4 5 5 5 7 6 5 8 2 4 6 3
6 6 5 4 4 4 4 3 3 3 4 4 4 6 7 8 6 6 7 5 5 5 4 4 4 7 8 9 7 5 5 6 5 5 4 3 3 3 3 2 4 3 3
6 7 5 4 3 4 3 1 1 3 4 4 4 3 4 6 7 6 8 9 7 6 6 5 5 8 8 8 7 7 10 7 5 4 4 3 3 3 3 3 3 3 1
6 7 6 5 5 5 4 2 1 2 3 3 4 3 4 5 6 11 11 10 7 5 4 7 8 10 8 6 8 9 9 6 6 5 6 5 4 3 4 4 3 2 1
8 9 6 5 4 3 3 1 1 3 2 4 4 5 6 4 4 5 6 6 9 7 5 5 6 6 5 4 4 6 6 6 6 6 6 5 3 3 4 3 3 3 3
4 5 6 4 2 1 1 2 3 3 3 3 3 3 4 6 7 9 10 8 8 8 5 3 3 4 5 5 4 5 5 6 7 6 6 6 6 5 5 4 3 3 4
3 5 3 3 1 2 3 3 7 8 7 7 7 5 4 9 11 8 13 13 11 13 4 4 6 7 8 7 7 6 6 8 6 6 5 6 6 7 6 4 3 4 5
5 4 3 1 2 3 3 4 2 1 8 8 8 8 8 12 13 11 10 15 12 12 7 6 7 8 8 8 8 7 8 8 6 6 6 7 6 5 7 6 6 5 5
3 2 2 3 3 2 3 4 4 3 3 5 5 8 5 6 6 8 4 9 2 4 7 7 8 8 7 7 7 8 8 5 6 6 6 7 7 6 6 6 7 8 7
1 1 2 2 2 3 4 4 3 4 4 6 5 4 6 2 1 1 9 3 6 7 8 8 6 6 6 5 6 7 9 8 8 7 7 7 7 8 7 8 8 9 8
3 6 5 4 3 4 4 5 4 4 5 5 5 6 1 1 3 4 5 5 5 6 7 8 6 5 5 5 5 6 8 8 8 8 8 8 8 8 9 9 9 8 8
3 3 4 4 5 5 6 6 5 5 5 6 7 7 8 6 8 6 5 6 7 6 6 5 5 6 6 6 6 6 7 7 9 9 9 9 8 9 9 8 9 9 9
3 3 3 2 3 4 6 5 6 6 6 6 6 5 4 5 7 7 7 6 6 7 5 6 6 7 8 9 8 9 9 10 10 9 10 8 9 11 10 9 9 8 7
1 4 4 3 3 4 5 5 6 6 7 6 5 5 4 4 5 6 7 6 5 6 6 6 7 8 7 8 9 9 11 11 10 8 8 8 9 9 8 8 9 9 8
4 3 4 5 5 5 5 5 4 4 4 4 5 5 6 6 5 6 7 5 5 4 6 5 6 8 8 8 8 8 8 8 7 9 14 10 9 7 7 7 7 10 9
5 5 5 5 5 4 4 5 5 5 6 6 5 6 7 7 6 6 5 4 4 4 6 7 6 6 8 12 9 10 5 6 8 8 6 8 9 11 11 9 7 6 7
7 7 6 5 6 6 7 7 8 7 7 7 7 7 8 7 6 5 6 7 6 5 6 5 5 10 9 7 6 2 4 3 2 4 5 5 5 3 4 5 6 5 5
Wind_Direction
183 184 161 162 172 171 151 161 156 149 141 129 142 139 112 91 82 84 68 58 64 39 27 40 30 39 171 168 156 139 125 107 123 94 88 99 82 90 82 75 84 91 95
168 175 162 152 155 169 176 170 149 164 158 192 170 160 137 105 83 87 93 84 83 65 27 58 44 50 90 147 151 130 123 122 123 133 119 114 93 103 113 108 105 94 102
164 164 154 166 156 175 177 181 165 178 168 154 160 181 143 143 128 117 137 118 87 60 29 61 60 86 96 110 119 122 119 113 131 146 125 116 108 129 112 104 92 91 88
168 171 166 171 176 186 173 163 165 169 146 139 162 188 157 153 126 117 128 114 102 82 54 52 63 88 112 125 127 123 129 121 124 130 108 110 104 121 109 131 104 90 99
170 173 176 168 168 172 186 180 169 174 165 156 161 177 185 172 150 141 126 124 119 106 86 67 66 89 99 115 139 128 136 131 136 133 127 121 117 146 160 153 117 130 80
171 179 155 158 184 187 172 151 149 156 159 210 176 177 194 197 168 154 146 142 118 94 87 82 78 77 82 108 115 107 126 143 141 134 129 158 155 162 143 154 138 154 176
163 169 170 178 176 174 177 176 181 185 176 169 238 219 199 206 178 168 162 154 138 119 114 107 99 93 106 109 112 119 122 101 139 150 155 168 162 175 146 148 167 159 177
159 174 178 186 188 184 181 187 196 195 196 187 177 192 232 220 193 184 172 173 163 133 146 126 122 128 119 128 124 111 101 96 121 180 168 164 184 164 167 163 165 126 91
173 178 196 199 187 172 178 172 184 195 209 160 169 183 212 252 236 186 162 178 193 199 174 155 160 139 134 126 126 117 104 79 60 76 90 108 124 128 147 145 159 167 158
170 169 169 167 161 169 156 164 180 179 215 203 175 174 171 262 229 217 176 169 172 177 179 176 200 197 169 157 142 143 139 148 134 117 97 83 91 136 160 185 164 184 147
131 128 133 138 152 143 149 147 173 187 177 205 174 194 184 198 213 197 231 174 180 182 199 198 204 203 189 178 164 167 175 153 150 135 129 123 119 123 130 139 176 185 184
127 113 113 128 124 104 109 86 181 208 171 196 194 203 214 195 188 206 213 244 176 181 202 204 206 198 198 190 178 178 156 147 153 157 168 182 179 171 157 139 137 159 237
108 104 118 98 84 72 77 27 247 202 231 198 195 209 221 190 185 196 211 220 225 205 202 197 187 192 196 201 204 176 166 173 173 186 202 207 204 166 144 151 137 140 161
143 150 125 107 86 87 96 140 286 305 267 233 225 225 236 220 191 183 197 205 232 235 215 190 187 178 187 186 170 183 197 189 193 206 214 219 165 186 200 183 172 163 197
159 124 106 95 124 163 212 206 191 214 233 274 290 312 264 236 232 201 197 197 205 211 180 141 156 182 195 199 207 199 192 188 199 212 220 217 218 202 194 175 165 170 209
129 81 87 105 171 216 250 273 242 240 208 223 248 224 292 282 295 253 211 217 197 162 157 188 199 205 203 202 202 200 200 204 207 199 202 195 191 190 182 174 168 194 207
105 108 91 157 228 236 252 258 267 264 240 255 250 245 230 260 301 297 246 215 191 163 209 207 214 204 214 207 202 201 208 209 187 194 196 196 199 200 177 192 193 195 215
97 120 156 203 215 231 241 262 274 277 307 309 205 226 247 273 289 290 228 126 138 249 225 210 218 219 207 209 210 203 210 194 199 206 201 200 196 195 187 202 197 204 208
166 198 227 250 259 266 276 269 264 282 281 282 292 221 196 206 93 50 179 200 213 218 224 231 216 219 211 195 227 223 213 200 197 196 213 202 195 188 205 208 203 199 195
236 218 224 243 250 253 258 269 283 284 282 275 278 277 261 214 253 216 196 217 228 225 206 219 223 204 207 208 201 225 226 225 204 206 210 209 203 198 208 207 204 204 208
5 339 258 250 249 251 252 255 255 259 256 267 270 267 240 239 268 247 225 217 228 217 218 217 213 229 218 214 203 215 224 226 224 219 215 208 201 209 211 209 205 207 211
342 319 335 314 283 267 259 250 254 257 266 264 275 291 267 231 266 272 266 249 239 245 240 227 225 224 218 219 220 221 227 232 231 216 219 217 205 212 205 203 204 210 210
315 314 316 319 314 295 287 268 252 250 264 279 303 310 309 291 276 274 275 264 252 260 254 249 254 255 244 236 232 227 231 231 233 227 217 213 203 204 195 198 196 204 207
319 330 335 327 324 322 314 313 299 306 309 322 338 344 346 334 319 308 304 292 284 281 274 267 253 244 248 244 242 239 237 237 224 219 209 212 209 182 190 211 200 220 218
358 6 5 359 350 353 13 33 36 33 41 27 17 21 16 7 5 3 348 346 13 34 25 10 356 322 288 272 254 251 273 301 239 207 201 195 204 183 201 212 200 214 222
27 25 28 25 32 38 51 57 53 48 47 47 41 38 39 33 29 18 16 23 29 25 22 14 27 29 357 355 356 34 101 82 99 196 192 176 166 178 148 150 151 149 154